Temp
-15 -15 -15 -15 -15 -15 -15 -15 -15 -15 -14 -14 -14 -14 -13 -13 -13 -13 -13 -13 -12 -13 -13 -13 -12 -11 -10 -10 -10 -9 -10 -10 -9 -9 -10 -9 -10 -10 -10 -9 -9 -10 -10 -10
-15 -15 -15 -15 -15 -15 -15 -15 -15 -15 -15 -14 -14 -14 -13 -13 -13 -13 -13 -13 -13 -14 -13 -13 -13 -12 -12 -11 -10 -10 -10 -10 -10 -10 -10 -9 -9 -10 -11 -9 -11 -10 -10 -10
-16 -15 -16 -16 -16 -16 -16 -16 -15 -15 -14 -15 -14 -14 -14 -14 -13 -13 -13 -13 -13 -13 -13 -14 -12 -13 -13 -12 -12 -11 -11 -11 -10 -10 -10 -9 -9 -11 -11 -10 -10 -11 -10 -10
-17 -16 -16 -16 -16 -16 -16 -15 -15 -15 -15 -15 -14 -14 -13 -14 -14 -13 -13 -13 -13 -13 -13 -13 -13 -13 -12 -13 -13 -12 -11 -12 -12 -11 -10 -10 -11 -11 -10 -10 -11 -9 -10 -11
-19 -17 -17 -17 -17 -16 -17 -16 -15 -15 -15 -15 -15 -14 -15 -14 -14 -14 -14 -13 -13 -12 -12 -12 -13 -12 -13 -12 -12 -12 -13 -12 -12 -12 -11 -11 -11 -11 -11 -10 -10 -10 -11 -12
-19 -18 -18 -19 -18 -18 -17 -16 -16 -15 -15 -15 -15 -15 -17 -15 -15 -15 -14 -14 -13 -13 -12 -12 -12 -12 -12 -12 -12 -13 -12 -13 -13 -13 -13 -13 -12 -12 -12 -12 -11 -11 -12 -12
-20 -19 -19 -19 -19 -19 -18 -17 -18 -18 -17 -18 -15 -15 -16 -16 -15 -15 -14 -14 -14 -14 -13 -12 -12 -12 -12 -12 -12 -12 -12 -13 -12 -12 -12 -13 -13 -12 -12 -12 -12 -12 -12 -12
-20 -20 -19 -19 -19 -20 -21 -19 -20 -19 -19 -19 -15 -15 -16 -17 -16 -15 -15 -14 -14 -13 -13 -13 -14 -13 -12 -12 -12 -12 -12 -12 -12 -12 -12 -12 -12 -12 -12 -12 -12 -12 -12 -12
-21 -20 -20 -20 -20 -20 -20 -20 -19 -18 -18 -17 -16 -17 -17 -16 -17 -17 -16 -15 -14 -14 -13 -13 -13 -13 -13 -13 -12 -12 -12 -12 -12 -12 -12 -12 -11 -11 -11 -12 -12 -12 -12 -12
-21 -20 -21 -20 -20 -20 -21 -21 -20 -20 -19 -18 -18 -18 -19 -17 -17 -18 -17 -16 -16 -15 -15 -14 -13 -13 -12 -12 -13 -12 -12 -12 -12 -11 -11 -11 -11 -11 -11 -11 -11 -11 -12 -13
-20 -20 -21 -21 -21 -21 -21 -21 -20 -20 -20 -19 -18 -19 -18 -18 -18 -18 -18 -17 -17 -17 -17 -17 -16 -14 -13 -12 -12 -12 -12 -12 -12 -12 -11 -11 -11 -11 -11 -11 -11 -11 -11 -12
-21 -21 -21 -21 -21 -21 -21 -21 -22 -20 -20 -19 -18 -17 -19 -19 -18 -18 -18 -17 -18 -17 -17 -17 -17 -17 -16 -14 -13 -12 -12 -12 -12 -12 -12 -12 -11 -11 -10 -11 -11 -11 -11 -11
-21 -21 -21 -21 -21 -21 -21 -21 -21 -20 -20 -19 -19 -18 -19 -18 -18 -18 -18 -18 -18 -18 -19 -19 -18 -18 -18 -19 -19 -17 -14 -12 -12 -12 -12 -12 -12 -11 -11 -11 -11 -11 -12 -12
-22 -22 -21 -21 -21 -21 -21 -21 -21 -20 -20 -20 -19 -18 -19 -19 -19 -18 -19 -19 -19 -19 -20 -19 -19 -19 -19 -20 -20 -20 -20 -18 -16 -13 -12 -11 -11 -11 -11 -11 -11 -12 -12 -12
-22 -22 -22 -22 -22 -22 -21 -21 -21 -21 -20 -20 -19 -19 -19 -19 -19 -18 -19 -19 -19 -20 -20 -20 -19 -19 -19 -20 -20 -19 -19 -20 -19 -18 -14 -11 -11 -11 -11 -11 -11 -11 -12 -12
-22 -22 -22 -22 -22 -22 -21 -21 -21 -20 -20 -20 -20 -19 -20 -19 -19 -19 -19 -19 -20 -20 -20 -19 -19 -19 -19 -20 -20 -19 -19 -19 -19 -19 -18 -14 -12 -11 -11 -11 -11 -12 -12 -11
-22 -22 -22 -22 -22 -22 -21 -21 -21 -21 -21 -20 -20 -20 -19 -19 -19 -19 -20 -20 -20 -20 -20 -19 -20 -19 -19 -19 -20 -20 -19 -19 -19 -19 -19 -17 -13 -12 -11 -11 -11 -11 -12 -12
-22 -22 -22 -22 -22 -22 -22 -21 -21 -21 -21 -21 -21 -20 -20 -19 -19 -19 -20 -21 -19 -20 -20 -20 -20 -19 -20 -19 -20 -20 -20 -20 -19 -19 -19 -19 -15 -12 -11 -11 -11 -11 -12 -12
-22 -22 -22 -22 -22 -21 -21 -21 -21 -21 -21 -21 -20 -20 -20 -20 -19 -19 -21 -20 -19 -19 -19 -20 -20 -19 -19 -19 -19 -19 -19 -19 -19 -19 -19 -19 -15 -12 -11 -11 -11 -12 -12 -12
-22 -22 -22 -22 -22 -21 -22 -21 -21 -21 -21 -20 -20 -20 -19 -19 -19 -19 -20 -19 -18 -18 -18 -19 -18 -18 -19 -19 -19 -19 -18 -18 -19 -18 -19 -19 -15 -13 -12 -12 -12 -12 -12 -12
-21 -22 -22 -22 -22 -22 -22 -22 -22 -21 -21 -21 -20 -19 -19 -20 -20 -18 -18 -18 -18 -17 -18 -18 -18 -18 -18 -18 -17 -18 -17 -18 -19 -19 -18 -17 -14 -13 -12 -12 -12 -12 -12 -11
-22 -22 -22 -22 -22 -22 -22 -22 -21 -21 -20 -20 -20 -20 -20 -19 -19 -18 -18 -17 -17 -18 -18 -18 -17 -17 -17 -17 -18 -17 -17 -17 -18 -18 -17 -15 -13 -13 -13 -12 -12 -12 -12 -11
-22 -22 -22 -22 -22 -22 -22 -22 -21 -21 -20 -20 -20 -19 -19 -18 -18 -18 -17 -17 -18 -17 -17 -17 -17 -17 -17 -17 -16 -16 -16 -16 -16 -16 -15 -14 -14 -13 -12 -12 -12 -11 -11 -12
-21 -21 -22 -22 -22 -22 -22 -22 -22 -21 -20 -20 -19 -19 -18 -18 -17 -17 -18 -17 -17 -16 -16 -16 -15 -15 -16 -16 -16 -16 -15 -15 -14 -14 -14 -14 -13 -13 -13 -13 -12 -12 -12 -13
-21 -21 -21 -22 -21 -21 -22 -22 -21 -20 -20 -20 -19 -19 -18 -16 -17 -18 -17 -17 -16 -16 -15 -15 -15 -15 -15 -16 -15 -15 -15 -14 -14 -13 -13 -13 -13 -13 -13 -13 -12 -13 -13 -13
-21 -21 -22 -22 -22 -22 -21 -20 -20 -19 -19 -19 -19 -18 -17 -16 -17 -18 -17 -16 -15 -15 -14 -14 -13 -13 -14 -15 -15 -15 -14 -13 -13 -12 -12 -13 -13 -13 -13 -13 -13 -13 -13 -13
Height
5707 5708 5708 5708 5710 5712 5713 5715 5717 5717 5718 5722 5724 5725 5727 5728 5732 5737 5742 5743 5748 5754 5758 5767 5771 5776 5780 5786 5790 5792 5794 5801 5806 5804 5812 5818 5824 5825 5832 5835 5836 5838 5839 5842
5702 5700 5699 5699 5701 5702 5704 5706 5707 5708 5710 5712 5714 5717 5720 5722 5724 5728 5732 5735 5738 5743 5746 5752 5759 5761 5767 5772 5779 5780 5785 5792 5797 5802 5804 5806 5812 5818 5821 5823 5827 5834 5832 5833
5693 5692 5692 5693 5693 5694 5695 5696 5696 5700 5701 5704 5706 5709 5709 5713 5714 5717 5721 5725 5727 5730 5736 5739 5743 5749 5754 5760 5767 5773 5777 5781 5788 5793 5797 5801 5805 5810 5811 5816 5820 5824 5823 5825
5685 5684 5685 5686 5686 5687 5688 5686 5688 5690 5692 5695 5697 5701 5700 5702 5703 5706 5709 5712 5714 5717 5723 5727 5732 5735 5738 5746 5754 5760 5768 5773 5777 5781 5786 5791 5794 5800 5805 5808 5811 5813 5812 5821
5677 5676 5677 5677 5677 5678 5679 5679 5680 5682 5684 5685 5688 5690 5691 5694 5693 5693 5694 5699 5704 5708 5712 5718 5723 5728 5731 5737 5742 5746 5753 5758 5764 5769 5773 5777 5782 5788 5795 5795 5789 5803 5807 5813
5670 5668 5668 5669 5668 5669 5669 5671 5673 5675 5676 5679 5679 5680 5684 5681 5685 5686 5687 5689 5694 5701 5705 5708 5712 5717 5722 5727 5732 5734 5739 5744 5749 5754 5761 5766 5771 5776 5781 5786 5792 5796 5799 5804
5663 5661 5661 5660 5660 5661 5661 5664 5667 5670 5670 5674 5670 5673 5675 5672 5673 5676 5679 5683 5687 5690 5693 5698 5701 5703 5707 5712 5716 5721 5726 5730 5733 5738 5746 5752 5759 5765 5770 5776 5780 5785 5789 5793
5656 5656 5653 5654 5654 5655 5655 5655 5658 5659 5665 5667 5662 5665 5662 5665 5665 5666 5669 5672 5677 5680 5683 5684 5686 5689 5694 5697 5701 5706 5710 5716 5719 5725 5731 5737 5744 5751 5758 5765 5770 5775 5778 5782
5647 5646 5644 5645 5646 5648 5650 5649 5649 5649 5653 5654 5657 5657 5658 5657 5655 5654 5657 5661 5664 5667 5669 5671 5674 5677 5679 5681 5685 5689 5695 5701 5705 5709 5716 5723 5731 5738 5744 5751 5757 5761 5768 5772
5638 5638 5637 5636 5638 5640 5640 5641 5642 5642 5645 5647 5650 5651 5651 5649 5648 5642 5644 5646 5650 5652 5653 5654 5656 5658 5662 5667 5669 5672 5678 5683 5688 5695 5701 5708 5715 5723 5731 5738 5745 5750 5755 5760
5629 5629 5631 5628 5629 5631 5632 5631 5632 5634 5637 5638 5641 5647 5641 5641 5639 5637 5635 5636 5636 5636 5637 5637 5637 5639 5643 5646 5649 5655 5661 5667 5672 5678 5686 5693 5701 5709 5716 5724 5733 5739 5745 5748
5622 5620 5620 5620 5620 5619 5621 5624 5625 5627 5631 5632 5631 5636 5633 5631 5631 5630 5627 5625 5624 5624 5623 5620 5619 5618 5618 5621 5625 5630 5637 5645 5652 5660 5668 5677 5686 5694 5703 5712 5719 5725 5732 5737
5616 5615 5615 5614 5614 5613 5613 5616 5618 5621 5622 5623 5624 5628 5624 5621 5620 5619 5618 5615 5612 5609 5610 5608 5606 5604 5603 5601 5602 5605 5611 5618 5626 5636 5647 5659 5669 5678 5688 5698 5706 5712 5718 5724
5608 5609 5609 5609 5611 5608 5608 5611 5613 5614 5614 5616 5616 5618 5616 5614 5611 5608 5606 5605 5602 5598 5592 5590 5589 5590 5588 5588 5588 5590 5592 5595 5600 5611 5624 5639 5652 5661 5672 5683 5691 5700 5708 5713
5601 5602 5601 5601 5600 5601 5604 5606 5606 5606 5608 5606 5609 5608 5607 5604 5600 5596 5593 5591 5589 5584 5579 5574 5571 5570 5572 5573 5574 5576 5579 5581 5584 5589 5601 5618 5634 5645 5657 5668 5679 5689 5696 5703
5596 5596 5596 5596 5596 5597 5600 5602 5600 5601 5601 5599 5598 5598 5596 5593 5588 5585 5581 5578 5572 5565 5559 5553 5550 5548 5551 5556 5559 5562 5565 5567 5570 5575 5581 5595 5612 5629 5644 5656 5668 5677 5686 5693
5592 5592 5592 5594 5593 5594 5597 5597 5596 5594 5594 5592 5590 5588 5585 5582 5577 5574 5570 5564 5555 5546 5539 5533 5530 5528 5533 5538 5543 5547 5549 5551 5556 5561 5568 5576 5592 5613 5630 5643 5655 5666 5676 5684
5588 5587 5588 5590 5590 5593 5593 5591 5588 5586 5586 5584 5580 5576 5574 5571 5567 5562 5557 5547 5536 5528 5521 5514 5511 5512 5517 5522 5528 5531 5533 5536 5542 5548 5555 5563 5576 5599 5618 5631 5645 5656 5666 5676
5586 5585 5585 5587 5587 5588 5588 5583 5581 5577 5579 5574 5570 5567 5565 5561 5555 5553 5544 5533 5523 5516 5511 5503 5499 5501 5507 5512 5514 5514 5518 5521 5526 5533 5543 5552 5566 5587 5607 5623 5637 5649 5659 5666
5585 5584 5584 5584 5582 5581 5580 5575 5572 5567 5566 5565 5561 5559 5556 5550 5541 5536 5529 5521 5514 5510 5504 5498 5496 5496 5498 5501 5502 5503 5502 5504 5513 5522 5533 5543 5560 5581 5601 5616 5629 5641 5649 5657
5583 5582 5580 5578 5575 5575 5572 5569 5565 5562 5561 5555 5551 5547 5542 5535 5526 5517 5514 5511 5507 5504 5500 5495 5493 5492 5493 5493 5493 5494 5496 5499 5506 5516 5527 5541 5558 5578 5595 5609 5622 5632 5642 5652
5581 5579 5577 5575 5573 5571 5567 5564 5558 5555 5551 5545 5541 5535 5527 5519 5512 5510 5506 5502 5500 5497 5494 5490 5490 5490 5490 5489 5488 5489 5489 5496 5503 5514 5525 5541 5557 5575 5591 5604 5616 5626 5637 5648
5579 5578 5576 5574 5570 5565 5561 5555 5551 5545 5538 5531 5525 5519 5512 5510 5507 5503 5500 5497 5495 5492 5490 5485 5484 5484 5484 5484 5486 5490 5492 5499 5506 5517 5530 5544 5560 5575 5588 5602 5613 5624 5634 5643
5577 5574 5572 5569 5565 5561 5555 5549 5543 5534 5528 5522 5515 5509 5507 5503 5500 5497 5494 5491 5489 5487 5485 5483 5481 5483 5484 5484 5486 5490 5495 5502 5511 5524 5538 5550 5563 5576 5589 5600 5611 5622 5631 5638
5576 5572 5568 5565 5559 5556 5550 5542 5534 5527 5522 5514 5510 5506 5501 5497 5497 5492 5488 5486 5484 5481 5479 5477 5474 5477 5482 5485 5488 5492 5499 5507 5513 5508 5539 5557 5567 5578 5589 5600 5609 5619 5626 5635
5573 5570 5565 5560 5554 5547 5539 5533 5525 5521 5516 5511 5507 5502 5498 5496 5494 5490 5486 5482 5478 5472 5468 5468 5467 5469 5474 5481 5488 5494 5503 5511 5519 5527 5545 5560 5571 5581 5591 5599 5608 5615 5623 5631
Wind_Speed
24 27 29 35 36 38 39 38 38 38 39 35 36 35 34 35 37 39 41 43 42 64 66 66 68 68 68 69 67 77 68 69 63 47 55 61 57 52 54 46 36 34 40 24
25 26 30 29 31 32 34 38 38 41 41 41 39 38 36 35 37 37 38 41 43 44 56 66 69 67 70 69 70 68 65 63 57 60 57 60 57 45 49 46 43 36 39 37
27 30 29 29 29 29 31 33 37 37 40 39 41 40 41 39 39 40 40 40 43 45 45 48 74 72 68 68 68 69 65 61 63 66 66 65 75 53 52 52 55 41 38 34
28 30 28 28 28 29 30 35 34 34 34 33 37 34 38 36 39 41 43 45 47 49 48 48 49 63 72 73 66 68 70 70 68 68 68 67 62 56 55 55 53 50 39 37
27 31 28 27 29 31 30 32 33 32 33 33 32 34 33 32 36 39 41 43 45 49 51 52 51 52 52 80 76 74 70 70 67 66 67 68 65 60 59 63 49 52 47 45
23 25 27 28 30 30 33 33 32 31 31 31 30 32 21 31 30 35 39 41 43 45 48 51 54 55 56 57 60 62 79 75 74 70 64 62 61 60 61 61 61 56 49 52
25 27 28 28 32 31 32 32 27 24 27 19 33 29 27 30 30 34 37 40 41 42 44 47 51 55 56 58 61 61 61 67 79 81 76 70 68 68 66 63 60 60 61 64
27 27 27 26 31 27 29 32 27 26 17 17 34 31 33 24 29 35 39 41 43 45 46 47 49 51 53 59 61 63 65 66 68 70 71 70 72 77 76 73 71 69 67 62
25 28 33 28 27 32 27 30 32 34 31 33 30 28 24 28 28 33 35 39 44 48 51 54 55 55 56 58 59 62 65 68 69 71 71 70 67 65 64 67 65 69 73 71
23 24 30 30 27 26 27 31 32 30 31 28 24 22 19 27 25 31 35 41 41 42 45 51 57 61 63 63 64 65 65 65 69 71 71 70 68 67 64 62 58 57 61 62
23 22 20 30 31 32 31 34 34 29 27 25 23 16 24 24 30 32 34 37 39 40 37 41 45 57 67 69 71 71 71 70 68 67 70 72 70 66 64 62 58 53 53 54
22 21 20 22 20 28 29 29 28 26 25 25 27 23 27 23 27 29 32 35 38 41 45 47 45 46 50 62 71 77 76 76 76 73 69 67 69 69 65 60 56 55 53 50
15 16 16 18 20 19 23 24 24 24 27 27 28 22 20 26 27 29 32 36 38 41 43 44 47 49 47 48 47 56 71 80 81 80 77 71 66 66 65 61 58 54 52 50
21 18 17 18 18 20 23 24 24 27 31 28 27 24 27 27 31 36 36 38 42 46 49 53 53 48 46 42 42 40 43 49 64 80 82 77 69 66 64 61 58 55 52 52
18 15 17 18 23 28 24 22 24 27 25 30 27 29 29 32 35 39 42 45 42 47 51 55 59 58 49 47 46 45 45 47 48 55 76 80 76 69 65 62 59 54 53 51
12 12 13 14 19 21 21 18 22 26 29 32 33 32 32 34 40 44 46 49 55 58 57 55 50 57 56 55 51 48 46 46 47 49 55 74 79 72 65 62 57 56 53 51
12 13 14 13 17 18 17 18 20 23 26 31 32 33 36 38 41 44 48 53 55 58 57 54 47 47 52 50 56 54 54 55 51 50 50 60 76 73 66 62 59 55 53 49
13 14 13 13 16 15 16 21 24 27 30 29 36 39 41 41 41 44 51 56 53 53 51 38 35 39 44 46 48 51 52 49 46 50 51 52 67 71 65 63 57 54 51 46
8 6 8 11 16 18 18 24 27 31 31 35 40 40 42 41 45 49 53 47 46 46 36 24 25 31 35 39 43 39 43 46 43 46 46 50 59 67 65 59 54 51 48 50
8 10 13 14 20 24 23 26 27 32 35 36 38 38 36 42 51 44 38 33 35 34 28 20 20 20 29 37 36 37 28 35 37 37 42 48 54 62 61 55 53 49 50 50
15 17 17 17 19 19 22 24 26 27 28 29 34 36 43 51 44 34 29 28 30 28 18 17 20 21 20 24 25 24 24 25 35 34 40 45 53 56 55 54 51 51 49 45
9 10 11 15 17 19 21 25 30 32 32 35 39 44 45 34 31 27 29 28 25 22 20 20 15 15 19 20 20 14 26 22 35 33 39 50 50 53 53 51 50 49 46 41
7 10 12 15 17 25 29 31 32 38 43 44 42 34 30 29 24 27 21 21 18 15 16 19 21 21 22 24 14 19 22 30 34 37 45 46 49 52 52 49 49 45 41 36
9 11 17 22 26 25 30 35 40 38 34 29 29 27 23 21 21 17 19 17 14 7 8 10 13 12 10 18 21 22 22 38 42 44 43 47 48 48 47 45 43 39 34 33
14 18 17 16 26 33 33 32 33 24 23 22 20 19 17 16 13 19 17 13 6 12 12 17 22 17 12 20 19 21 42 50 48 39 48 43 45 44 43 42 38 35 35 35
17 21 24 26 31 43 35 30 30 26 15 18 19 17 15 13 16 19 15 9 11 23 19 13 3 13 20 29 26 40 53 55 35 37 39 45 42 41 40 37 35 37 35 31
Wind_Direction
268 263 257 251 249 249 251 252 252 253 254 250 250 244 241 243 239 237 235 241 247 224 214 217 219 223 224 225 227 225 219 228 237 231 249 233 241 234 248 235 239 262 255 255
265 261 257 256 254 252 252 252 252 251 251 253 253 252 248 244 243 243 236 235 236 241 230 223 220 221 227 230 227 237 229 227 232 237 248 243 231 241 255 226 257 257 260 270
259 258 257 255 255 253 252 250 252 251 252 252 252 254 252 249 247 247 246 240 238 237 234 235 225 225 222 225 230 233 236 236 237 236 242 245 245 251 257 258 264 274 259 271
259 254 253 253 255 253 254 251 252 254 254 251 250 247 251 252 252 248 245 242 241 240 239 237 238 232 227 225 226 229 230 233 235 240 240 245 250 250 255 257 253 262 242 260
262 255 252 251 253 252 251 254 253 253 254 255 256 256 251 246 248 249 250 246 243 242 243 241 240 238 241 230 227 231 230 230 232 236 242 249 251 251 252 256 256 252 261 262
274 271 260 247 249 252 252 253 254 255 256 256 253 256 259 252 245 245 247 251 250 245 243 244 244 242 239 238 239 243 232 232 231 233 236 242 245 248 251 253 256 256 258 264
274 266 272 264 246 246 250 253 255 260 259 253 253 249 246 261 256 253 251 250 249 252 252 247 243 245 245 242 242 241 239 240 238 237 238 237 241 244 246 247 249 252 256 259
260 262 274 265 254 240 251 246 246 250 242 239 253 254 258 262 261 261 260 258 256 254 252 253 253 252 246 245 244 242 243 242 240 241 242 244 246 244 244 247 251 253 258 262
264 268 262 263 252 250 254 255 246 248 252 252 251 261 259 263 265 262 261 262 264 264 262 260 256 252 253 253 249 247 244 242 242 243 243 244 244 245 246 247 251 254 255 260
263 263 254 263 252 240 249 249 251 247 249 255 256 254 266 260 263 275 273 271 268 269 268 266 262 257 252 248 248 250 247 244 244 243 245 246 245 246 246 247 249 249 250 252
276 273 260 256 257 251 257 253 246 240 249 253 255 251 256 266 266 278 286 283 285 282 276 277 277 269 261 256 251 246 245 246 245 244 243 243 245 245 245 245 246 246 244 250
281 278 270 255 241 242 240 239 244 242 251 250 253 251 265 269 275 281 287 289 287 281 278 278 281 283 276 261 256 251 247 244 243 242 241 240 241 242 243 245 245 244 242 245
275 281 278 278 271 256 243 240 245 249 248 249 256 254 273 282 281 286 288 289 292 288 280 277 276 276 279 269 261 255 248 242 241 240 240 239 239 239 239 239 241 242 245 246
274 273 264 265 207 233 229 238 246 249 250 259 259 252 275 274 279 286 288 287 287 283 279 276 274 269 268 258 254 255 251 248 244 236 235 235 235 237 238 237 237 238 241 245
274 276 264 250 231 236 239 247 248 252 256 260 267 266 272 279 280 284 288 292 287 288 286 278 272 268 257 249 247 249 251 248 241 237 231 229 230 231 234 234 234 235 238 243
274 275 267 241 237 245 245 250 257 258 263 268 275 278 281 280 282 288 284 291 293 291 284 276 269 262 254 245 246 248 249 250 244 240 229 223 222 223 228 230 230 231 235 240
283 267 264 234 238 250 256 257 259 262 265 271 277 281 281 282 285 292 298 300 291 284 284 283 277 260 251 248 244 247 252 257 250 242 232 222 217 215 220 223 224 227 231 237
292 275 263 238 252 262 266 266 269 269 270 279 276 279 283 288 289 295 301 301 290 294 300 295 268 251 244 245 246 250 254 250 243 240 236 221 214 208 213 218 220 223 227 233
311 305 274 272 269 267 269 270 275 273 271 279 278 280 287 289 291 295 302 294 290 296 310 289 269 244 242 241 252 247 247 242 243 229 230 215 208 202 207 212 215 219 223 230
308 303 298 283 278 288 292 284 287 283 283 276 276 282 286 293 294 291 293 288 292 291 291 263 234 224 232 242 246 254 243 236 225 216 213 208 198 197 202 207 210 215 220 228
296 299 307 304 299 303 300 298 295 295 294 290 292 289 291 297 296 291 290 295 286 278 264 265 259 253 246 247 253 259 250 224 200 201 204 193 187 192 197 202 206 211 218 224
319 320 318 308 312 318 311 312 310 307 305 300 296 296 299 294 287 287 296 292 276 256 259 258 245 240 243 253 257 262 220 204 184 180 183 175 179 187 194 198 204 210 216 220
353 351 343 326 324 318 323 320 316 308 303 301 300 298 292 292 286 287 289 268 258 256 259 257 242 238 251 260 225 170 175 172 160 160 164 167 175 184 191 196 202 209 212 214
6 356 340 333 331 324 318 310 312 308 306 306 305 302 292 278 279 278 262 248 243 253 250 248 252 251 212 160 180 191 164 154 145 149 160 168 178 183 189 196 200 205 207 207
345 340 338 340 345 339 325 312 311 315 314 312 313 305 276 270 255 260 248 245 236 267 280 280 229 262 208 172 178 161 155 144 153 154 167 176 178 183 190 193 196 199 196 198
336 336 336 326 319 324 326 329 323 325 317 323 317 287 273 239 259 264 290 341 298 319 322 324 249 185 186 175 169 154 152 156 154 148 165 177 178 182 184 190 197 196 199 199